34.9°F
Current conditions from King Hill
Updated every 5 minutes
 
  Monday October 20, 2014

Station Historical Data
Daily Summary for January 8, 2012 Units:  English    Metric   Both
« Previous Day
Next Day »
Daily Weekly Monthly Yearly Custom
  High: Low: Average:
Temperature: 34.1 °F 8.0 °F 21.5 °F
Dew Point: 28.3 °F 3.9 °F 15 °F
Humidity: 85% 64% 76%
Wind Speed: 9.0mph 1.0mph 3.6mph
Wind Gust: 17.0mph - -
Wind- - West
Pressure: 30.29 in 29.86 in -
Precipitation: 0.00 in    
Historical Graphs
 
 
Tabular Data for January 8, 2012
Time Temperature Dew Point Pressure Wind Wind Speed Wind Gust Humidity Daily Rainfall
00:04 34.1 °F 28.3 °F 29.86 in West 5.0 mph 14.0 mph 79% 0.00 in
00:09 34.1 °F 28.0 °F 29.86 in West 9.0 mph 17.0 mph 78% 0.00 in
00:14 34.1 °F 27.7 °F 29.86 in West 6.0 mph 17.0 mph 77% 0.00 in
00:19 34.1 °F 27.7 °F 29.86 in WSW 6.0 mph 12.0 mph 77% 0.00 in
00:24 33.9 °F 27.8 °F 29.86 in WSW 5.0 mph 11.0 mph 78% 0.00 in
00:34 33.8 °F 27.7 °F 29.87 in West 5.0 mph 10.0 mph 78% 0.00 in
00:39 33.7 °F 27.6 °F 29.87 in West 5.0 mph 9.0 mph 78% 0.00 in
00:44 33.8 °F 27.4 °F 29.87 in West 6.0 mph 14.0 mph 77% 0.00 in
00:49 33.7 °F 27.6 °F 29.88 in WNW 5.0 mph 14.0 mph 78% 0.00 in
00:54 33.7 °F 27.3 °F 29.88 in West 8.0 mph 13.0 mph 77% 0.00 in
00:59 33.5 °F 27.4 °F 29.88 in NW 4.0 mph 13.0 mph 78% 0.00 in
01:04 33.4 °F 27.9 °F 29.89 in WNW 6.0 mph 12.0 mph 80% 0.00 in
01:09 33.1 °F 28.2 °F 29.89 in NW 6.0 mph 11.0 mph 82% 0.00 in
01:14 32.6 °F 28.0 °F 29.89 in NW 3.0 mph 11.0 mph 83% 0.00 in
01:19 32.3 °F 28.0 °F 29.90 in NW 4.0 mph 11.0 mph 84% 0.00 in
01:24 32.1 °F 28.1 °F 29.90 in Calm   11.0 mph 85% 0.00 in
01:29 31.9 °F 27.9 °F 29.91 in WNW 1.0 mph 4.0 mph 85% 0.00 in
01:39 31.6 °F 27.6 °F 29.91 in NNW 3.0 mph 5.0 mph 85% 0.00 in
01:44 31.2 °F 26.9 °F 29.92 in NW 6.0 mph 10.0 mph 84% 0.00 in
01:49 30.9 °F 26.3 °F 29.92 in NW 3.0 mph 10.0 mph 83% 0.00 in
01:54 30.6 °F 25.8 °F 29.92 in WNW 5.0 mph 11.0 mph 82% 0.00 in
01:59 30.4 °F 25.6 °F 29.92 in NW 5.0 mph 11.0 mph 82% 0.00 in
02:04 30.2 °F 25.4 °F 29.92 in NW 5.0 mph 11.0 mph 82% 0.00 in
02:09 30.0 °F 25.2 °F 29.93 in NNW 5.0 mph 11.0 mph 82% 0.00 in
02:14 29.9 °F 25.1 °F 29.93 in NW 8.0 mph 13.0 mph 82% 0.00 in
02:19 29.8 °F 25.0 °F 29.93 in NNW 6.0 mph 15.0 mph 82% 0.00 in
02:24 29.8 °F 25.3 °F 29.94 in NNW 3.0 mph 15.0 mph 83% 0.00 in
02:29 29.7 °F 24.9 °F 29.94 in NNW 6.0 mph 10.0 mph 82% 0.00 in
02:34 29.6 °F 24.5 °F 29.95 in NW 3.0 mph 9.0 mph 81% 0.00 in
02:39 29.5 °F 24.1 °F 29.95 in NNW 4.0 mph 9.0 mph 80% 0.00 in
02:44 29.4 °F 24.0 °F 29.95 in NW 5.0 mph 11.0 mph 80% 0.00 in
02:49 29.3 °F 23.9 °F 29.95 in NW 4.0 mph 11.0 mph 80% 0.00 in
02:54 29.3 °F 24.2 °F 29.95 in NNW 2.0 mph 11.0 mph 81% 0.00 in
02:59 29.2 °F 24.1 °F 29.96 in NW 6.0 mph 12.0 mph 81% 0.00 in
03:04 29.1 °F 23.7 °F 29.96 in NW 5.0 mph 12.0 mph 80% 0.00 in
03:09 29.1 °F 23.7 °F 29.96 in NNW 4.0 mph 12.0 mph 80% 0.00 in
03:14 29.0 °F 23.3 °F 29.96 in NNW 5.0 mph 13.0 mph 79% 0.00 in
03:19 28.8 °F 22.8 °F 29.97 in NW 3.0 mph 13.0 mph 78% 0.00 in
03:24 28.8 °F 22.8 °F 29.97 in NNW 4.0 mph 12.0 mph 78% 0.00 in
03:29 28.6 °F 22.3 °F 29.97 in NW 4.0 mph 9.0 mph 77% 0.00 in
03:34 28.5 °F 22.2 °F 29.97 in NW 7.0 mph 15.0 mph 77% 0.00 in
03:39 28.5 °F 22.2 °F 29.98 in NW 4.0 mph 15.0 mph 77% 0.00 in
03:44 28.4 °F 21.8 °F 29.98 in NNW 3.0 mph 11.0 mph 76% 0.00 in
03:49 28.3 °F 21.7 °F 29.98 in NW 4.0 mph 9.0 mph 76% 0.00 in
03:54 28.3 °F 21.7 °F 29.98 in NNW 3.0 mph 8.0 mph 76% 0.00 in
03:59 28.1 °F 21.2 °F 29.98 in NW 5.0 mph 10.0 mph 75% 0.00 in
04:04 28.0 °F 20.8 °F 29.99 in WNW 6.0 mph 11.0 mph 74% 0.00 in
04:09 28.0 °F 20.8 °F 29.99 in NW 6.0 mph 12.0 mph 74% 0.00 in
04:14 27.9 °F 21.0 °F 29.99 in NNW 2.0 mph 12.0 mph 75% 0.00 in
04:19 27.8 °F 20.6 °F 29.99 in NNW 5.0 mph 10.0 mph 74% 0.00 in
04:24 27.6 °F 20.4 °F 30.00 in NW 5.0 mph 11.0 mph 74% 0.00 in
04:29 27.5 °F 20.0 °F 30.00 in NW 7.0 mph 11.0 mph 73% 0.00 in
04:34 27.4 °F 19.9 °F 29.99 in NW 6.0 mph 11.0 mph 73% 0.00 in
04:39 27.3 °F 19.8 °F 30.00 in NW 5.0 mph 11.0 mph 73% 0.00 in
04:44 27.2 °F 19.7 °F 30.00 in NNW 6.0 mph 11.0 mph 73% 0.00 in
04:49 27.1 °F 19.6 °F 30.00 in NW 3.0 mph 14.0 mph 73% 0.00 in
04:54 26.9 °F 19.1 °F 30.01 in NW 6.0 mph 14.0 mph 72% 0.00 in
04:59 26.7 °F 18.6 °F 30.01 in NW 5.0 mph 17.0 mph 71% 0.00 in
05:04 26.6 °F 18.8 °F 30.01 in NNW 5.0 mph 17.0 mph 72% 0.00 in
05:09 26.5 °F 18.7 °F 30.01 in NW 6.0 mph 13.0 mph 72% 0.00 in
05:14 26.4 °F 18.6 °F 30.01 in NW 3.0 mph 13.0 mph 72% 0.00 in
05:19 26.3 °F 18.2 °F 30.02 in WNW 6.0 mph 16.0 mph 71% 0.00 in
05:24 26.2 °F 18.1 °F 30.02 in NW 7.0 mph 16.0 mph 71% 0.00 in
05:34 26.1 °F 18.3 °F 30.03 in NNW 2.0 mph 11.0 mph 72% 0.00 in
05:39 26.0 °F 17.9 °F 30.03 in WNW 3.0 mph 8.0 mph 71% 0.00 in
05:44 25.9 °F 17.8 °F 30.04 in NW 1.0 mph 8.0 mph 71% 0.00 in
05:49 25.8 °F 18.0 °F 30.04 in NW 3.0 mph 8.0 mph 72% 0.00 in
05:54 25.7 °F 17.6 °F 30.04 in NW 4.0 mph 8.0 mph 71% 0.00 in
05:59 25.6 °F 17.5 °F 30.04 in NNW 5.0 mph 11.0 mph 71% 0.00 in
06:04 25.5 °F 17.4 °F 30.04 in NW 3.0 mph 11.0 mph 71% 0.00 in
06:09 25.4 °F 17.3 °F 30.04 in NW 5.0 mph 11.0 mph 71% 0.00 in
06:14 25.3 °F 17.5 °F 30.04 in NW 3.0 mph 12.0 mph 72% 0.00 in
06:19 25.2 °F 17.1 °F 30.05 in NW 6.0 mph 14.0 mph 71% 0.00 in
06:24 25.1 °F 17.0 °F 30.05 in WNW 6.0 mph 14.0 mph 71% 0.00 in
06:29 24.9 °F 16.5 °F 30.05 in WNW 6.0 mph 10.0 mph 70% 0.00 in
06:34 24.8 °F 16.4 °F 30.06 in NW 4.0 mph 11.0 mph 70% 0.00 in
06:39 24.7 °F 16.3 °F 30.06 in NW 6.0 mph 16.0 mph 70% 0.00 in
06:49 24.5 °F 16.1 °F 30.07 in NNW 4.0 mph 10.0 mph 70% 0.00 in
06:54 24.4 °F 16.0 °F 30.07 in NNW 3.0 mph 11.0 mph 70% 0.00 in
06:59 24.3 °F 15.9 °F 30.07 in NW 5.0 mph 12.0 mph 70% 0.00 in
07:04 24.2 °F 15.8 °F 30.07 in NW 5.0 mph 12.0 mph 70% 0.00 in
07:09 24.0 °F 15.3 °F 30.07 in NNW 6.0 mph 14.0 mph 69% 0.00 in
07:14 24.0 °F 15.6 °F 30.08 in NW 5.0 mph 14.0 mph 70% 0.00 in
07:19 23.9 °F 15.9 °F 30.08 in NW 7.0 mph 13.0 mph 71% 0.00 in
07:24 23.8 °F 15.8 °F 30.08 in NW 8.0 mph 13.0 mph 71% 0.00 in
07:29 23.6 °F 15.6 °F 30.09 in NNW 5.0 mph 14.0 mph 71% 0.00 in
07:34 23.6 °F 15.9 °F 30.09 in NNW 5.0 mph 14.0 mph 72% 0.00 in
07:39 23.4 °F 16.0 °F 30.10 in NW 3.0 mph 13.0 mph 73% 0.00 in
07:44 23.3 °F 15.9 °F 30.10 in NNW 4.0 mph 13.0 mph 73% 0.00 in
07:49 23.1 °F 15.7 °F 30.10 in NNW 5.0 mph 10.0 mph 73% 0.00 in
07:54 23.0 °F 15.6 °F 30.11 in NNW 4.0 mph 10.0 mph 73% 0.00 in
07:59 22.9 °F 15.5 °F 30.11 in NW 4.0 mph 10.0 mph 73% 0.00 in
08:04 22.8 °F 15.4 °F 30.11 in NW 6.0 mph 12.0 mph 73% 0.00 in
08:09 22.7 °F 15.7 °F 30.11 in NNW 3.0 mph 12.0 mph 74% 0.00 in
08:14 22.7 °F 15.7 °F 30.11 in NW 5.0 mph 9.0 mph 74% 0.00 in
08:19 22.6 °F 15.3 °F 30.12 in NNW 5.0 mph 13.0 mph 73% 0.00 in
08:24 22.6 °F 15.3 °F 30.12 in NW 5.0 mph 13.0 mph 73% 0.00 in
08:30 22.5 °F 15.2 °F 30.12 in NW 5.0 mph 9.0 mph 73% 0.00 in
08:39 22.6 °F 15.3 °F 30.12 in NNW 2.0 mph 10.0 mph 73% 0.00 in
08:49 22.7 °F 15.3 °F 30.13 in North 3.0 mph 9.0 mph 73% 0.00 in
08:54 22.8 °F 15.4 °F 30.13 in NNW 4.0 mph 9.0 mph 73% 0.00 in
08:59 22.9 °F 15.5 °F 30.13 in NNW 3.0 mph 9.0 mph 73% 0.00 in
09:04 22.9 °F 15.5 °F 30.14 in NNW 5.0 mph 11.0 mph 73% 0.00 in
09:09 22.9 °F 15.9 °F 30.14 in NNE 1.0 mph 11.0 mph 74% 0.00 in
09:14 22.9 °F 15.9 °F 30.14 in North 2.0 mph 6.0 mph 74% 0.00 in
09:19 23.0 °F 16.3 °F 30.14 in NNW 1.0 mph 6.0 mph 75% 0.00 in
09:24 23.2 °F 16.5 °F 30.14 in NNW 2.0 mph 6.0 mph 75% 0.00 in
09:29 23.2 °F 15.8 °F 30.14 in NNW 3.0 mph 6.0 mph 73% 0.00 in
09:34 23.4 °F 15.4 °F 30.15 in NNW 4.0 mph 7.0 mph 71% 0.00 in
09:39 23.3 °F 15.3 °F 30.15 in NW 2.0 mph 7.0 mph 71% 0.00 in
09:44 23.3 °F 15.0 °F 30.15 in NNW 2.0 mph 7.0 mph 70% 0.00 in
09:49 23.4 °F 15.1 °F 30.15 in NW 1.0 mph 6.0 mph 70% 0.00 in
09:54 23.6 °F 15.3 °F 30.15 in NW 1.0 mph 6.0 mph 70% 0.00 in
09:59 23.8 °F 15.4 °F 30.15 in NW 3.0 mph 5.0 mph 70% 0.00 in
10:04 24.0 °F 15.3 °F 30.15 in NNW 2.0 mph 6.0 mph 69% 0.00 in
10:09 24.1 °F 15.4 °F 30.15 in NNW 3.0 mph 7.0 mph 69% 0.00 in
10:14 24.3 °F 15.3 °F 30.15 in NNW 3.0 mph 7.0 mph 68% 0.00 in
10:19 24.0 °F 14.6 °F 30.15 in NW 3.0 mph 7.0 mph 67% 0.00 in
10:24 23.6 °F 14.3 °F 30.15 in NW 2.0 mph 7.0 mph 67% 0.00 in
10:29 23.4 °F 14.1 °F 30.15 in Calm   6.0 mph 67% 0.00 in
10:34 23.4 °F 14.1 °F 30.15 in NW 2.0 mph 5.0 mph 67% 0.00 in
10:39 23.5 °F 14.2 °F 30.15 in Calm   5.0 mph 67% 0.00 in
10:44 23.7 °F 14.7 °F 30.15 in NNW 2.0 mph 5.0 mph 68% 0.00 in
10:49 23.7 °F 14.3 °F 30.15 in NW 4.0 mph 7.0 mph 67% 0.00 in
10:54 23.8 °F 14.4 °F 30.15 in Calm   7.0 mph 67% 0.00 in
10:59 24.0 °F 15.0 °F 30.15 in NW 2.0 mph 5.0 mph 68% 0.00 in
11:04 24.3 °F 15.3 °F 30.15 in West 3.0 mph 6.0 mph 68% 0.00 in
11:09 24.9 °F 15.8 °F 30.15 in NNW 2.0 mph 7.0 mph 68% 0.00 in
11:14 25.7 °F 16.3 °F 30.15 in North 2.0 mph 7.0 mph 67% 0.00 in
11:19 26.2 °F 16.0 °F 30.15 in NW 2.0 mph 7.0 mph 65% 0.00 in
11:24 26.2 °F 15.7 °F 30.15 in NW 5.0 mph 8.0 mph 64% 0.00 in
11:34 26.3 °F 16.5 °F 30.15 in North 4.0 mph 9.0 mph 66% 0.00 in
11:39 26.1 °F 15.9 °F 30.16 in NNW 3.0 mph 9.0 mph 65% 0.00 in
11:44 25.9 °F 15.8 °F 30.16 in NNW 5.0 mph 9.0 mph 65% 0.00 in
11:49 24.9 °F 15.2 °F 30.16 in NW 4.0 mph 9.0 mph 66% 0.00 in
11:54 24.6 °F 15.2 °F 30.16 in NW 4.0 mph 9.0 mph 67% 0.00 in
11:59 24.3 °F 14.9 °F 30.16 in NNW 2.0 mph 9.0 mph 67% 0.00 in
12:04 24.3 °F 15.3 °F 30.15 in North 3.0 mph 8.0 mph 68% 0.00 in
12:09 24.0 °F 15.0 °F 30.16 in NW 6.0 mph 10.0 mph 68% 0.00 in
12:14 23.5 °F 14.8 °F 30.16 in North 3.0 mph 10.0 mph 69% 0.00 in
12:19 23.3 °F 15.0 °F 30.16 in WNW 2.0 mph 9.0 mph 70% 0.00 in
12:24 23.5 °F 15.2 °F 30.16 in WNW 1.0 mph 7.0 mph 70% 0.00 in
12:29 23.5 °F 14.5 °F 30.16 in NW 6.0 mph 10.0 mph 68% 0.00 in
12:39 23.5 °F 15.2 °F 30.16 in NNW 4.0 mph 8.0 mph 70% 0.00 in
12:49 23.5 °F 15.2 °F 30.16 in NW 3.0 mph 10.0 mph 70% 0.00 in
12:54 22.9 °F 14.6 °F 30.16 in NNW 4.0 mph 10.0 mph 70% 0.00 in
12:59 22.6 °F 14.6 °F 30.17 in NW 3.0 mph 10.0 mph 71% 0.00 in
13:04 22.6 °F 14.9 °F 30.17 in NNW 2.0 mph 8.0 mph 72% 0.00 in
13:09 22.7 °F 15.0 °F 30.17 in NNE 3.0 mph 8.0 mph 72% 0.00 in
13:14 22.8 °F 15.1 °F 30.17 in NNE 2.0 mph 8.0 mph 72% 0.00 in
13:19 22.7 °F 14.7 °F 30.17 in North 3.0 mph 10.0 mph 71% 0.00 in
13:24 22.5 °F 14.5 °F 30.17 in North 3.0 mph 10.0 mph 71% 0.00 in
13:29 22.4 °F 14.4 °F 30.17 in Calm   10.0 mph 71% 0.00 in
13:34 22.3 °F 14.6 °F 30.17 in North 1.0 mph 9.0 mph 72% 0.00 in
13:39 22.3 °F 14.6 °F 30.17 in North 2.0 mph 9.0 mph 72% 0.00 in
13:44 22.2 °F 14.6 °F 30.18 in North 2.0 mph 7.0 mph 72% 0.00 in
13:49 22.1 °F 14.8 °F 30.18 in North 3.0 mph 7.0 mph 73% 0.00 in
13:54 22.0 °F 15.0 °F 30.18 in NNE 4.0 mph 7.0 mph 74% 0.00 in
13:59 21.9 °F 15.2 °F 30.18 in NE 1.0 mph 8.0 mph 75% 0.00 in
14:04 21.8 °F 15.1 °F 30.18 in North 2.0 mph 8.0 mph 75% 0.00 in
14:09 21.8 °F 15.1 °F 30.19 in North 1.0 mph 7.0 mph 75% 0.00 in
14:14 21.3 °F 14.6 °F 30.19 in NNE 1.0 mph 8.0 mph 75% 0.00 in
14:19 21.2 °F 14.8 °F 30.19 in NNW 1.0 mph 8.0 mph 76% 0.00 in
14:24 21.2 °F 14.8 °F 30.19 in NNW 1.0 mph 5.0 mph 76% 0.00 in
14:29 21.1 °F 14.4 °F 30.19 in North 2.0 mph 7.0 mph 75% 0.00 in
14:34 21.0 °F 14.3 °F 30.19 in NNE 3.0 mph 7.0 mph 75% 0.00 in
14:39 21.0 °F 14.3 °F 30.19 in NNW 1.0 mph 7.0 mph 75% 0.00 in
14:44 20.9 °F 14.5 °F 30.20 in NNE 1.0 mph 7.0 mph 76% 0.00 in
14:49 20.9 °F 14.2 °F 30.20 in NNE 2.0 mph 7.0 mph 75% 0.00 in
14:54 20.8 °F 14.4 °F 30.20 in Calm   7.0 mph 76% 0.00 in
14:59 20.8 °F 14.4 °F 30.20 in Calm   7.0 mph 76% 0.00 in
15:04 20.8 °F 14.1 °F 30.20 in NNW 1.0 mph 4.0 mph 75% 0.00 in
15:09 20.7 °F 14.0 °F 30.20 in NNE 1.0 mph 6.0 mph 75% 0.00 in
15:14 20.6 °F 14.2 °F 30.20 in NNE 1.0 mph 6.0 mph 76% 0.00 in
15:19 20.6 °F 14.2 °F 30.21 in NNE 1.0 mph 6.0 mph 76% 0.00 in
15:24 20.5 °F 14.1 °F 30.21 in North 2.0 mph 5.0 mph 76% 0.00 in
15:29 20.4 °F 14.0 °F 30.21 in North 2.0 mph 6.0 mph 76% 0.00 in
15:34 20.2 °F 13.9 °F 30.21 in NNE 1.0 mph 6.0 mph 76% 0.00 in
15:39 20.0 °F 13.7 °F 30.21 in NNE 3.0 mph 7.0 mph 76% 0.00 in
15:44 19.9 °F 13.6 °F 30.21 in NE 1.0 mph 7.0 mph 76% 0.00 in
15:49 19.9 °F 13.6 °F 30.22 in NE 1.0 mph 4.0 mph 76% 0.00 in
15:54 19.9 °F 13.6 °F 30.22 in NNE 2.0 mph 7.0 mph 76% 0.00 in
15:59 19.8 °F 13.5 °F 30.22 in Calm   7.0 mph 76% 0.00 in
16:04 19.7 °F 13.1 °F 30.22 in NNE 1.0 mph 4.0 mph 75% 0.00 in
16:09 19.7 °F 13.1 °F 30.23 in NNE 2.0 mph 6.0 mph 75% 0.00 in
16:14 19.7 °F 12.8 °F 30.23 in NNW 2.0 mph 6.0 mph 74% 0.00 in
16:19 19.6 °F 12.7 °F 30.23 in NNE 1.0 mph 4.0 mph 74% 0.00 in
16:24 19.6 °F 13.0 °F 30.23 in NNW 1.0 mph 6.0 mph 75% 0.00 in
16:34 19.4 °F 12.8 °F 30.24 in Calm   6.0 mph 75% 0.00 in
16:39 19.3 °F 12.7 °F 30.24 in Calm   3.0 mph 75% 0.00 in
16:44 19.2 °F 12.6 °F 30.24 in Calm   4.0 mph 75% 0.00 in
16:49 19.1 °F 12.8 °F 30.24 in NNE 1.0 mph 5.0 mph 76% 0.00 in
16:54 19.0 °F 12.7 °F 30.24 in NNE 2.0 mph 5.0 mph 76% 0.00 in
16:59 18.9 °F 12.6 °F 30.24 in Calm   5.0 mph 76% 0.00 in
17:04 18.9 °F 12.9 °F 30.24 in Calm   4.0 mph 77% 0.00 in
17:09 18.7 °F 12.7 °F 30.24 in NE 1.0 mph 3.0 mph 77% 0.00 in
17:14 18.6 °F 12.6 °F 30.24 in Calm   3.0 mph 77% 0.00 in
17:19 18.5 °F 12.5 °F 30.25 in Calm   2.0 mph 77% 0.00 in
17:24 18.4 °F 12.7 °F 30.25 in Calm   5.0 mph 78% 0.00 in
17:29 18.2 °F 12.2 °F 30.25 in NE 1.0 mph 5.0 mph 77% 0.00 in
17:34 17.9 °F 11.9 °F 30.25 in Calm   4.0 mph 77% 0.00 in
17:39 17.6 °F 11.6 °F 30.26 in Calm   2.0 mph 77% 0.00 in
17:44 17.3 °F 11.3 °F 30.26 in Calm   2.0 mph 77% 0.00 in
17:49 17.0 °F 11.0 °F 30.27 in Calm   2.0 mph 77% 0.00 in
17:54 16.7 °F 11.0 °F 30.27 in NE 1.0 mph 3.0 mph 78% 0.00 in
17:59 16.4 °F 10.7 °F 30.27 in North 1.0 mph 4.0 mph 78% 0.00 in
18:04 16.2 °F 10.8 °F 30.27 in Calm   4.0 mph 79% 0.00 in
18:09 16.1 °F 10.7 °F 30.27 in NNW 1.0 mph 4.0 mph 79% 0.00 in
18:14 16.0 °F 10.6 °F 30.27 in Calm   3.0 mph 79% 0.00 in
18:19 16.0 °F 10.6 °F 30.27 in Calm   1.0 mph 79% 0.00 in
18:24 15.8 °F 10.4 °F 30.28 in Calm     79% 0.00 in
18:29 15.6 °F 10.3 °F 30.28 in Calm     79% 0.00 in
18:34 15.4 °F 10.3 °F 30.28 in Calm     80% 0.00 in
18:39 15.4 °F 10.3 °F 30.28 in Calm   1.0 mph 80% 0.00 in
18:44 15.2 °F 10.1 °F 30.28 in Calm   1.0 mph 80% 0.00 in
18:49 15.2 °F 10.1 °F 30.28 in Calm   1.0 mph 80% 0.00 in
18:54 15.2 °F 10.1 °F 30.28 in Calm   1.0 mph 80% 0.00 in
18:59 15.1 °F 10.0 °F 30.28 in Calm     80% 0.00 in
19:04 15.0 °F 9.9 °F 30.29 in Calm   1.0 mph 80% 0.00 in
19:09 14.8 °F 9.8 °F 30.29 in Calm   1.0 mph 80% 0.00 in
19:14 14.8 °F 10.0 °F 30.29 in NNW 1.0 mph 2.0 mph 81% 0.00 in
19:19 14.8 °F 10.0 °F 30.29 in Calm   3.0 mph 81% 0.00 in
19:24 14.8 °F 9.8 °F 30.29 in Calm   3.0 mph 80% 0.00 in
19:30 14.8 °F 10.0 °F 30.29 in Calm   2.0 mph 81% 0.00 in
19:39 13.7 °F 8.7 °F 30.29 in Calm   2.0 mph 80% 0.00 in
19:44 13.5 °F 8.8 °F 30.29 in Calm     81% 0.00 in
19:49 13.7 °F 9.2 °F 30.29 in Calm   2.0 mph 82% 0.00 in
19:54 13.9 °F 9.4 °F 30.29 in Calm   2.0 mph 82% 0.00 in
19:59 14.0 °F 9.5 °F 30.29 in Calm   2.0 mph 82% 0.00 in
20:04 13.9 °F 9.2 °F 30.29 in Calm   2.0 mph 81% 0.00 in
20:09 13.7 °F 9.2 °F 30.29 in Calm     82% 0.00 in
20:14 13.6 °F 9.1 °F 30.29 in Calm     82% 0.00 in
20:19 13.3 °F 8.8 °F 30.29 in Calm     82% 0.00 in
20:24 12.8 °F 8.3 °F 30.29 in Calm     82% 0.00 in
20:29 12.5 °F 8.1 °F 30.29 in Calm     82% 0.00 in
20:34 12.4 °F 8.2 °F 30.29 in Calm     83% 0.00 in
20:39 12.5 °F 8.3 °F 30.29 in Calm   1.0 mph 83% 0.00 in
20:49 11.4 °F 7.0 °F 30.29 in Calm     82% 0.00 in
20:54 11.1 °F 6.7 °F 30.29 in Calm     82% 0.00 in
20:59 11.1 °F 7.0 °F 30.29 in Calm     83% 0.00 in
21:04 10.9 °F 6.8 °F 30.29 in Calm     83% 0.00 in
21:09 11.3 °F 7.4 °F 30.29 in Calm     84% 0.00 in
21:14 11.5 °F 7.6 °F 30.29 in Calm   1.0 mph 84% 0.00 in
21:19 11.7 °F 7.8 °F 30.29 in Calm   1.0 mph 84% 0.00 in
21:24 11.5 °F 7.6 °F 30.28 in Calm     84% 0.00 in
21:29 11.1 °F 7.0 °F 30.29 in Calm     83% 0.00 in
21:34 10.6 °F 6.5 °F 30.29 in Calm     83% 0.00 in
21:39 10.2 °F 6.1 °F 30.29 in Calm     83% 0.00 in
21:44 9.9 °F 5.8 °F 30.29 in Calm     83% 0.00 in
21:49 9.9 °F 6.0 °F 30.29 in Calm     84% 0.00 in
21:54 9.9 °F 6.0 °F 30.29 in Calm     84% 0.00 in
21:59 9.7 °F 5.6 °F 30.29 in Calm     83% 0.00 in
22:04 9.6 °F 5.7 °F 30.29 in Calm     84% 0.00 in
22:09 9.4 °F 5.5 °F 30.29 in Calm     84% 0.00 in
22:14 9.5 °F 5.6 °F 30.29 in Calm     84% 0.00 in
22:19 9.4 °F 5.5 °F 30.29 in Calm     84% 0.00 in
22:24 9.2 °F 5.1 °F 30.29 in Calm     83% 0.00 in
22:29 9.4 °F 5.5 °F 30.29 in Calm     84% 0.00 in
22:34 9.9 °F 6.0 °F 30.29 in Calm     84% 0.00 in
22:39 9.7 °F 5.8 °F 30.29 in Calm     84% 0.00 in
22:44 9.6 °F 5.7 °F 30.29 in Calm     84% 0.00 in
22:49 9.6 °F 5.7 °F 30.28 in Calm     84% 0.00 in
22:54 9.5 °F 5.6 °F 30.28 in Calm     84% 0.00 in
22:59 9.4 °F 5.5 °F 30.28 in Calm     84% 0.00 in
23:04 9.0 °F 5.2 °F 30.28 in Calm     84% 0.00 in
23:09 8.9 °F 5.1 °F 30.28 in Calm     84% 0.00 in
23:14 8.6 °F 4.5 °F 30.28 in Calm     83% 0.00 in
23:19 8.3 °F 4.2 °F 30.27 in Calm     83% 0.00 in
23:24 8.0 °F 3.9 °F 30.27 in Calm     83% 0.00 in
23:29 8.0 °F 3.9 °F 30.27 in Calm     83% 0.00 in
23:34 8.2 °F 4.4 °F 30.27 in Calm     84% 0.00 in
23:39 8.3 °F 4.5 °F 30.27 in Calm     84% 0.00 in
23:44 8.7 °F 4.9 °F 30.27 in Calm     84% 0.00 in
23:49 8.6 °F 4.8 °F 30.27 in Calm     84% 0.00 in
23:54 8.5 °F 4.7 °F 30.27 in Calm     84% 0.00 in
23:59 8.0 °F 3.9 °F 30.27 in Calm     83% 0.00 in
Westford Weather
Compliments of Weather Underground

 
 
Current Radar Loop:

Copyright © WestfordWeather.net 2007-2014. All rights reserved.